Wind_Speed
33 33 33 31 30 28 30 29 29 31 32 33 34 35 38 39 39 37 35 34 33 32 32 34 36 37 38 40 42 43 44 45 47 48 48 49 51 51 52 52 52 53 53
39 38 38 39 38 39 38 37 38 37 36 35 37 38 39 41 42 42 42 41 39 38 38 39 40 39 41 43 44 46 47 48 49 50 50 51 53 53 54 54 54 54 53
48 47 46 45 45 43 42 43 43 42 41 41 41 42 42 43 44 44 45 45 46 45 44 44 44 45 45 47 48 50 51 51 52 52 53 54 54 54 56 57 56 54 53
49 50 50 49 49 49 49 48 48 47 47 48 48 47 46 47 45 45 46 47 48 48 48 50 52 52 53 53 53 54 56 57 56 55 56 56 58 57 57 55 57 56 55
52 53 53 53 53 52 52 52 51 52 52 53 53 53 51 50 48 47 49 50 51 52 53 54 57 57 58 60 60 62 63 62 61 61 61 60 59 59 59 58 59 59 59
55 56 55 56 57 57 56 55 57 58 58 57 57 56 56 55 52 53 52 52 54 56 56 59 60 61 62 64 66 67 69 66 68 69 68 65 64 64 66 66 64 65 65
57 58 58 57 56 57 57 59 60 60 60 59 57 58 59 56 57 57 57 58 59 60 62 63 61 63 65 68 69 72 70 72 73 72 72 71 71 70 68 67 67 69 70
59 58 58 57 57 59 60 61 62 61 61 61 60 60 59 59 61 62 64 64 64 65 65 65 67 68 69 72 74 75 75 76 76 75 75 75 74 73 71 71 70 70 72
61 61 61 60 60 60 59 60 62 62 61 61 60 61 62 62 65 68 68 67 67 67 68 69 70 72 74 75 78 79 81 80 78 80 80 78 79 78 77 76 76 75 74
64 63 62 61 61 60 60 61 62 63 65 65 64 64 65 67 69 70 70 70 69 70 72 74 75 76 78 79 80 82 80 82 81 81 81 82 81 80 79 79 80 80 75
62 64 63 63 64 63 62 62 63 64 64 66 68 68 67 68 69 70 71 73 75 76 79 80 80 79 78 80 84 84 84 83 83 81 81 78 80 81 80 80 82 80 78
66 64 65 66 66 67 65 65 66 65 66 67 70 71 71 72 73 73 74 77 80 81 81 82 81 81 82 83 84 85 83 80 78 77 76 75 76 77 76 76 79 79 79
69 70 68 69 69 70 71 70 71 70 70 71 72 72 72 73 75 78 80 80 80 81 81 83 83 84 84 83 82 79 78 75 74 74 71 70 70 69 67 68 67 67 68
70 70 71 71 71 72 72 72 72 72 74 74 75 75 75 76 79 80 82 82 84 84 84 84 83 83 83 81 78 77 73 73 72 71 70 69 68 67 66 65 64 64 63
69 69 71 71 72 71 71 72 73 72 74 75 75 76 77 76 76 79 81 82 82 85 84 84 83 81 79 77 74 74 73 72 70 69 68 68 69 68 68 66 65 64 62
73 73 73 73 73 72 73 73 73 74 74 72 71 73 75 77 78 77 80 80 80 80 81 80 79 76 74 73 73 73 73 73 71 70 69 67 67 67 67 67 65 65 63
77 76 76 76 76 76 75 73 74 72 68 69 71 72 75 77 77 76 76 75 77 75 74 73 74 74 73 71 70 70 71 72 71 70 69 68 68 68 68 67 67 66 65
75 75 77 75 73 73 74 72 70 68 66 64 66 66 69 69 70 69 70 69 68 68 69 68 67 67 67 67 66 66 69 70 70 71 70 70 70 69 68 68 68 68 67
78 73 70 71 73 73 72 71 69 69 66 65 61 64 65 67 64 64 62 60 61 61 60 61 62 63 64 65 65 66 68 70 70 70 70 70 71 69 69 68 68 68 68
77 74 73 72 74 76 74 70 68 68 67 64 62 65 69 66 62 62 60 63 61 58 58 58 58 58 60 61 61 61 63 65 68 70 71 71 71 70 70 70 69 68 69
78 75 74 74 73 74 73 74 72 70 71 68 69 66 72 71 69 67 70 64 63 62 59 56 57 57 58 58 59 57 59 61 64 65 69 71 71 70 69 69 69 70 71
77 78 77 76 76 77 78 79 77 76 73 69 68 69 71 72 70 65 66 68 64 58 58 59 59 60 63 62 60 60 62 62 61 63 65 67 69 71 71 71 70 70 71
78 80 82 83 83 82 81 81 82 80 77 75 70 71 68 72 72 68 66 65 65 64 65 61 62 62 66 66 66 67 66 64 63 63 63 63 64 67 69 71 73 73 74
81 83 83 85 88 88 87 84 83 84 85 83 84 80 76 75 70 67 67 65 65 70 69 68 69 69 66 68 71 73 68 67 65 65 62 61 62 64 64 65 69 74 76
86 88 91 92 93 96 95 92 92 93 93 90 87 85 77 72 68 70 70 69 67 71 75 74 74 74 74 70 73 72 69 70 70 68 67 65 63 63 62 62 62 65 69
96 97 98 99 101 102 102 102 99 97 93 91 87 85 81 74 69 68 68 70 72 74 75 75 76 75 75 74 72 72 71 71 72 72 67 64 63 62 63 64 65 65 66
Wind_Direction
227 232 233 235 241 250 261 254 256 258 258 262 265 268 265 264 266 268 268 269 270 270 270 271 274 278 279 279 281 282 282 282 282 282 282 283 284 285 284 284 286 287 288
239 234 236 239 244 253 258 253 256 260 261 264 268 269 271 270 268 267 267 266 266 268 270 272 272 274 276 277 277 278 279 280 280 282 284 285 285 286 286 287 287 289 288
244 245 245 246 248 253 255 257 260 261 263 265 269 270 272 271 271 270 272 273 273 275 275 277 277 279 278 277 277 277 277 277 278 280 280 281 283 285 286 286 286 286 286
251 251 252 253 253 255 258 259 262 264 266 270 272 275 276 276 274 277 278 278 277 277 278 280 281 282 283 284 283 281 279 277 277 279 279 279 281 282 283 287 288 287 286
256 255 256 257 258 258 260 264 266 267 269 272 275 276 277 275 275 278 280 280 279 279 280 283 287 287 286 287 288 288 287 286 284 282 282 282 281 283 284 286 286 286 285
258 258 259 261 263 263 265 266 266 268 270 272 273 274 276 275 272 276 279 280 280 279 281 284 285 285 286 287 287 287 288 286 285 288 288 285 283 284 284 285 285 285 284
260 260 259 260 262 265 266 266 267 268 270 270 271 272 274 274 273 276 278 281 283 283 284 285 285 286 287 287 287 287 286 286 286 286 285 286 285 286 285 284 284 286 285
262 263 263 264 266 267 267 268 269 269 270 271 272 273 274 273 273 275 279 281 282 283 282 283 284 285 286 287 287 286 285 285 285 284 284 282 284 284 283 284 284 285 284
260 261 263 265 266 266 267 269 269 269 268 272 272 273 274 274 274 275 279 281 282 283 283 283 284 285 286 285 285 283 282 283 283 282 282 282 282 281 283 284 286 284 286
261 263 264 265 266 265 267 268 269 269 271 273 275 276 276 275 276 277 279 280 283 284 284 285 285 285 285 284 284 283 282 282 280 281 281 280 282 282 281 283 283 283 282
261 262 264 265 265 267 268 269 271 271 272 275 276 277 277 278 279 279 280 282 283 283 284 285 285 285 286 286 286 286 284 283 281 282 283 281 282 283 281 281 282 283 280
262 264 265 265 266 268 269 273 275 273 274 276 278 278 278 279 280 281 281 281 283 284 285 286 286 286 286 286 284 284 284 283 283 282 281 280 280 281 281 281 282 281 281
265 264 265 265 266 269 271 273 275 276 275 276 278 279 280 281 281 282 282 283 284 286 285 285 285 284 284 283 284 283 281 282 282 281 281 280 279 280 282 282 282 284 283
264 265 267 268 269 270 271 272 274 275 277 278 279 279 279 279 281 282 283 284 285 284 285 284 284 283 283 282 281 280 281 281 280 280 280 281 280 281 281 282 284 286 286
264 267 269 271 271 272 273 275 275 276 277 279 279 279 279 280 281 282 283 283 282 283 284 281 281 282 281 280 279 280 280 279 278 278 279 278 279 280 280 280 283 285 286
265 267 268 269 271 272 274 275 275 277 278 278 277 277 278 279 280 280 282 282 282 281 280 279 280 279 279 280 280 280 280 280 281 280 279 278 279 279 280 281 282 283 283
265 266 268 270 273 273 274 274 276 277 279 279 278 278 278 280 282 282 283 282 281 280 280 279 278 277 277 277 279 281 282 282 282 281 281 281 280 280 280 280 280 280 281
263 267 269 271 271 271 273 274 274 275 278 280 281 283 282 283 285 285 284 283 284 283 281 281 281 279 280 280 280 281 282 283 283 284 284 284 282 281 281 280 279 279 280
263 264 267 269 270 271 271 272 276 278 277 277 281 284 284 284 282 284 283 285 284 283 283 283 281 280 281 282 283 282 282 283 284 285 285 285 285 284 282 281 280 279 278
261 261 263 266 269 271 272 274 274 277 278 279 280 284 284 281 279 279 279 284 284 286 286 285 284 283 284 285 284 284 286 286 285 284 284 284 284 284 284 283 282 280 279
263 262 263 264 266 270 273 275 275 274 276 278 279 282 281 278 278 280 282 284 283 283 283 284 285 284 287 288 290 293 293 291 289 287 284 282 283 283 284 283 281 280 278
264 266 264 263 263 266 269 272 272 271 272 275 278 280 277 276 278 282 284 283 284 284 283 283 281 285 288 289 290 291 295 295 294 289 286 284 283 282 281 281 280 280 278
262 264 266 265 265 266 266 267 269 270 271 274 273 274 273 277 280 282 283 280 279 278 280 279 282 283 286 289 290 293 294 296 298 296 291 287 285 283 282 281 281 281 280
262 263 264 265 266 265 264 265 266 268 271 273 275 275 269 269 271 274 275 275 274 276 277 279 281 282 284 288 290 292 293 296 304 302 297 291 288 286 284 285 285 282 280
260 261 263 263 264 266 266 266 266 268 271 272 273 273 269 267 266 267 269 269 269 274 278 279 281 283 284 285 288 290 291 297 303 302 300 297 297 294 292 289 289 288 286
261 262 264 265 266 266 267 268 268 268 269 270 270 270 268 266 264 267 265 266 267 271 275 277 279 280 283 285 286 288 290 295 299 300 298 296 301 299 296 293 294 293 289
Height
10900 10902 10903 10904 10905 10907 10908 10909 10909 10909 10910 10909 10910 10910 10911 10910 10910 10909 10909 10908 10908 10908 10908 10907 10907 10907 10907 10905 10903 10902 10901 10900 10899 10898 10896 10895 10894 10893 10891 10889 10888 10886 10884
10895 10897 10898 10899 10900 10902 10902 10904 10904 10905 10905 10904 10905 10906 10906 10905 10905 10904 10904 10903 10903 10903 10902 10900 10900 10900 10900 10899 10898 10896 10894 10893 10891 10890 10889 10887 10886 10884 10883 10881 10880 10878 10876
10888 10890 10892 10893 10895 10897 10896 10897 10898 10898 10899 10900 10900 10900 10900 10900 10899 10899 10898 10897 10897 10897 10895 10894 10893 10892 10892 10892 10890 10888 10886 10884 10884 10883 10882 10880 10878 10875 10874 10873 10871 10869 10868
10881 10883 10886 10887 10889 10889 10890 10890 10891 10891 10892 10892 10893 10893 10893 10892 10892 10891 10891 10890 10889 10889 10889 10888 10887 10885 10883 10882 10881 10879 10877 10876 10876 10875 10873 10870 10869 10867 10865 10864 10862 10860 10858
10873 10875 10877 10879 10880 10882 10883 10883 10884 10884 10884 10884 10885 10885 10885 10885 10885 10884 10883 10882 10881 10881 10881 10880 10878 10876 10874 10872 10870 10868 10866 10866 10866 10865 10863 10861 10860 10858 10856 10855 10853 10850 10848
10865 10867 10870 10871 10872 10873 10875 10876 10875 10876 10877 10877 10877 10876 10876 10876 10876 10875 10874 10873 10872 10872 10871 10870 10869 10867 10865 10863 10861 10858 10856 10856 10854 10853 10851 10849 10849 10847 10846 10844 10842 10840 10838
10857 10859 10861 10862 10864 10865 10867 10867 10866 10867 10868 10867 10867 10867 10866 10866 10865 10865 10864 10863 10862 10862 10860 10859 10858 10857 10855 10852 10849 10845 10846 10844 10843 10841 10839 10837 10835 10834 10834 10832 10830 10828 10825
10848 10849 10851 10854 10856 10856 10857 10857 10857 10858 10859 10858 10858 10857 10856 10856 10855 10854 10853 10853 10852 10851 10849 10848 10847 10846 10843 10841 10837 10833 10832 10831 10829 10828 10826 10824 10823 10821 10821 10819 10818 10816 10814
10838 10840 10842 10844 10844 10846 10847 10847 10848 10848 10849 10849 10848 10848 10847 10846 10845 10844 10843 10842 10841 10840 10838 10837 10836 10834 10831 10829 10824 10821 10819 10817 10817 10814 10811 10809 10808 10808 10806 10805 10802 10802 10801
10828 10830 10832 10834 10834 10837 10837 10837 10838 10839 10838 10838 10837 10837 10836 10835 10834 10833 10832 10831 10830 10828 10826 10825 10824 10821 10819 10816 10811 10807 10805 10804 10803 10801 10798 10794 10794 10793 10793 10792 10788 10786 10787
10819 10819 10822 10825 10825 10826 10826 10828 10828 10828 10828 10827 10825 10826 10825 10824 10823 10822 10821 10819 10817 10816 10814 10811 10810 10807 10805 10802 10797 10793 10790 10789 10788 10787 10785 10782 10779 10777 10777 10777 10773 10771 10772
10808 10812 10812 10813 10815 10814 10815 10817 10818 10817 10817 10816 10814 10813 10813 10812 10811 10809 10808 10806 10804 10802 10800 10796 10794 10792 10789 10787 10782 10778 10776 10773 10772 10772 10771 10767 10765 10763 10761 10760 10759 10757 10756
10797 10798 10802 10802 10803 10804 10804 10805 10805 10805 10805 10804 10803 10801 10800 10799 10797 10795 10793 10792 10789 10786 10784 10780 10778 10776 10774 10770 10766 10763 10761 10758 10758 10757 10757 10754 10751 10749 10748 10747 10745 10744 10741
10784 10786 10787 10790 10791 10792 10792 10792 10792 10792 10792 10791 10790 10787 10786 10786 10784 10781 10779 10778 10775 10770 10768 10765 10763 10761 10758 10755 10751 10748 10747 10744 10742 10742 10741 10740 10738 10736 10735 10734 10733 10731 10729
10771 10773 10774 10776 10776 10778 10779 10779 10779 10779 10779 10779 10776 10772 10771 10771 10770 10767 10765 10763 10759 10756 10754 10751 10748 10745 10742 10741 10737 10734 10731 10730 10728 10728 10727 10725 10724 10722 10721 10721 10720 10718 10716
10759 10760 10761 10761 10763 10766 10766 10766 10765 10766 10767 10764 10761 10758 10757 10756 10756 10754 10751 10747 10744 10741 10738 10736 10733 10731 10729 10727 10724 10720 10717 10716 10714 10714 10712 10711 10709 10707 10706 10706 10706 10704 10703
10745 10747 10746 10748 10752 10751 10751 10751 10751 10752 10752 10750 10746 10744 10743 10741 10741 10739 10735 10729 10728 10725 10722 10719 10717 10716 10715 10713 10712 10709 10704 10702 10700 10699 10697 10696 10694 10692 10691 10691 10690 10690 10690
10735 10734 10734 10737 10737 10736 10735 10738 10737 10738 10739 10735 10730 10729 10729 10727 10725 10723 10719 10716 10713 10711 10708 10706 10705 10703 10701 10700 10699 10696 10693 10689 10687 10685 10684 10682 10680 10678 10677 10676 10675 10676 10676
10724 10726 10722 10721 10722 10721 10722 10724 10725 10721 10723 10723 10718 10716 10715 10713 10712 10710 10708 10704 10702 10700 10696 10695 10693 10690 10688 10687 10685 10683 10680 10676 10673 10670 10668 10667 10665 10664 10662 10661 10660 10660 10660
10705 10712 10712 10709 10708 10705 10706 10710 10712 10709 10706 10708 10708 10703 10701 10700 10700 10699 10696 10695 10692 10689 10685 10683 10681 10678 10677 10675 10672 10669 10667 10664 10660 10657 10654 10651 10649 10648 10647 10646 10645 10644 10643
10687 10694 10697 10698 10696 10693 10692 10691 10694 10696 10694 10696 10697 10692 10685 10686 10688 10687 10685 10683 10679 10678 10675 10673 10671 10667 10666 10664 10661 10658 10656 10652 10648 10643 10639 10636 10634 10633 10631 10630 10629 10627 10625
10672 10673 10678 10680 10682 10683 10682 10677 10679 10678 10682 10683 10681 10679 10673 10673 10675 10676 10671 10668 10666 10665 10663 10661 10660 10657 10654 10652 10650 10647 10644 10640 10635 10630 10625 10622 10619 10617 10615 10613 10612 10610 10608
10661 10656 10656 10659 10663 10665 10667 10666 10664 10664 10666 10669 10668 10664 10663 10666 10665 10664 10661 10656 10652 10650 10650 10649 10647 10646 10643 10640 10638 10636 10633 10628 10622 10617 10612 10608 10604 10600 10598 10596 10596 10593 10591
10645 10644 10643 10640 10640 10643 10647 10651 10650 10648 10650 10652 10652 10655 10653 10654 10656 10652 10651 10647 10640 10636 10636 10637 10636 10632 10632 10629 10625 10622 10619 10614 10610 10604 10598 10594 10590 10587 10583 10581 10579 10577 10574
10625 10625 10623 10622 10622 10619 10622 10630 10633 10633 10631 10632 10635 10631 10636 10640 10641 10639 10637 10635 10631 10625 10622 10623 10621 10619 10618 10618 10612 10608 10605 10600 10597 10593 10587 10581 10576 10571 10568 10566 10562 10559 10556
10602 10601 10600 10600 10599 10598 10600 10604 10609 10611 10614 10612 10615 10615 10616 10621 10626 10625 10622 10620 10619 10616 10612 10610 10607 10605 10604 10602 10598 10594 10591 10587 10583 10579 10574 10569 10563 10558 10553 10550 10547 10543 10539